Regional Weather Roundup
Issued by NWS Huntsville, AL

Home | Current Version | Previous Version | Text Only | Print | Product List | Glossary On
Versions: 1 2 3 4 5 6 7 8 9 10 11 12 13 14 15 16 17 18 19 20 21 22 23 24 25 26 27 28 29 30 31 32 33 34 35 36 37 38 39 40 41 42 43 44 45 46 47 48 49
516
ASUS44 KHUN 110910
RWRHUN

WEATHER ROUNDUP FOR THE TENNESSEE VALLEY
NATIONAL WEATHER SERVICE HUNTSVILLE AL
300 AM CST THU FEB 11 2016

ALZ001>004-111000-
NORTHWEST ALABAMA

CITY           SKY/WX    TMP DP  RH WIND       PRES   REMARKS
RUSSELLVILLE     N/A     23 N/A N/A MISG        N/A
SHOALS AIRPORT CLEAR     26  18  71 E5        30.14S WCI  20
SHOALS TVA RES   N/A     27 N/A N/A MISG        N/A
$$

ALZ005>007-016-111000-
NORTH CENTRAL ALABAMA

CITY           SKY/WX    TMP DP  RH WIND       PRES   REMARKS
CULLMAN AG STN   N/A     21 N/A N/A CALM        N/A
DECATUR AP     CLEAR     24  19  81 CALM      30.15S
HUNTSVILLE AP  CLEAR     25  17  72 E6        30.14S WCI  18
HUN NWS/UAH      N/A     25  17  72 SE1         N/A
MERIDIANVILLE  CLEAR     27  19  74 CALM      30.14S
REDSTONE ARSN  CLEAR     23  17  76 S2        30.13S
VINEMONT AP    FAIR      27  13  56 E5        30.13S WCI  22
$$

ALZ008>010-111000-
NORTHEAST ALABAMA

CITY           SKY/WX    TMP DP  RH WIND       PRES   REMARKS
ALBERTVILLE    CLEAR     27  21  80 E3        30.12S
FORT PAYNE     CLEAR     27  18  69 CALM      30.14R
SCOTTSBORO AP  MOCLDY    27  19  74 CALM      30.16S
SCOTTSBORO HCN   N/A     25 N/A N/A MISG        N/A
VALLEY HEAD      N/A     25 N/A N/A MISG        N/A
$$

TNZ076-096-097-111000-
SOUTHEASTERN MIDDLE TENNESSEE

CITY           SKY/WX    TMP DP  RH WIND       PRES   REMARKS
TULLAHOMA      CLEAR     25  21  86 E5        30.12F WCI  19
WINCHESTER     CLEAR     23  19  86 NE3       30.13S
$$

...SURROUNDING SITES...

CITY           SKY/WX    TMP DP  RH WIND       PRES   REMARKS
ATLANTA        PTCLDY    30  12  47 W5        30.14F WCI  25
ANNISTON       CLEAR     26  17  68 CALM      30.17S
BIRMINGHAM     CLEAR     30  15  53 NE3       30.15F
CHATTANOOGA    CLOUDY    30  17  58 E5        30.16F WCI  25
DALTON         NOT AVBL
GADSDEN        CLEAR     22  19  89 CALM      30.17S
GOLDEN TRNGL   CLEAR     34  19  55 S6        30.09F WCI  29
HALEYVILLE     FAIR      26  14  60 SE5       30.12  WCI  20
JACKSON TN     CLEAR     25  13  60 E7        30.11R WCI  17
MEMPHIS        CLEAR     33  15  47 E5        30.05F WCI  29
NASHVILLE      CLOUDY    26  21  81 SE6       30.16F WCI  19
OXFORD MS      FAIR      32  16  51 SE6       30.08S WCI  26
ROME             N/A    N/A N/A N/A MISG      30.16S
SAVANNAH       CLOUDY    27  18  69 E5        30.11S WCI  21
TUPELO         CLEAR     28  18  66 N3        30.10S
TUSCALOOSA     CLEAR     28  23  81 CALM      30.15F
$$

...GULF COAST WEATHER...

CITY           SKY/WX    TMP DP  RH WIND       PRES   REMARKS
GULFPORT       PTCLDY    42  33  70 CALM      30.21S
PASCAGOULA     CLEAR     46  36  68 SW3       30.21S
MOBILE         CLEAR     43  37  79 SW6       30.20F
GULF SHORES    SUNNY     47  44  90 W8        30.21S
PENSACOLA      CLEAR     40  37  89 NW3       30.21S
DESTIN         CLEAR     46  39  76 CALM      30.22S
PANAMA CITY    CLEAR     44  40  87 NE5       30.23R
APPALACHICOLA  CLEAR     35  33  92 CALM      30.24R
$$





USA.gov is the U.S. government's official web portal to all federal, state and local government web resources and services.